Date,TemperatureHighF,TemperatureAvgF,TemperatureLowF,DewpointHighF,DewpointAvgF,DewpointLowF,HumidityHigh,HumidityAvg,HumidityLow,PressureMaxIn,PressureMinIn,WindSpeedMaxMPH,WindSpeedAvgMPH,GustSpeedMaxMPH,PrecipitationSumIn
2013-3-1,36.0,26.3,18.3,14.4,10.2,4.9,58,50,39,30.33,30.18,7,2,12,0.00
2013-3-2,40.3,24.6,10.0,12.3,3.9,-2.0,71,43,21,30.35,30.15,6,1,6,49.08
2013-3-3,37.9,28.3,25.3,9.3,4.2,1.9,42,35,24,30.17,29.93,5,1,10,0.00
2013-3-4,28.4,27.2,11.5,19.1,8.3,-1.0,79,47,36,30.00,29.74,5,2,8,49.08
2013-3-5,32.5,26.4,22.3,22.5,18.7,13.7,80,73,62,30.27,29.93,7,2,11,0.01
2013-3-6,38.5,24.1,12.9,19.0,11.7,4.4,70,59,39,30.39,30.26,5,1,8,0.03
2013-3-7,38.5,23.9,9.7,18.0,9.4,0.3,70,55,35,30.37,30.24,7,1,10,49.16
2013-3-8,45.5,32.3,18.3,27.1,19.8,9.2,73,60,46,30.29,30.03,4,1,8,0.00
2013-3-9,37.8,35.6,32.7,35.1,31.2,24.4,90,84,66,30.03,29.63,5,1,11,0.55
2013-3-10,35.4,33.7,30.9,31.9,26.6,22.6,87,75,69,29.89,29.72,10,4,17,0.02
2013-3-11,32.0,28.4,22.8,22.6,18.2,12.8,72,65,56,29.85,29.69,8,3,14,0.00
2013-3-12,33.6,26.3,21.0,16.2,10.5,2.0,66,51,32,30.16,29.79,11,2,15,0.00
2013-3-13,40.6,26.1,13.1,12.8,7.6,3.6,67,47,25,30.33,30.16,4,1,8,0.00
2013-3-14,48.0,33.8,23.5,26.8,20.1,11.1,78,58,42,30.21,29.96,6,1,9,0.05
2013-3-15,35.2,31.6,24.3,28.9,24.8,18.1,82,76,68,29.97,29.78,5,1,9,0.14
2013-3-16,34.2,23.5,13.6,18.1,7.6,-3.9,77,52,31,30.23,29.86,7,1,10,0.02
2013-3-17,32.4,20.6,7.3,12.0,-0.1,-9.4,53,40,28,30.27,29.84,8,2,13,0.00
2013-3-18,28.9,22.7,12.0,25.0,11.0,-1.1,85,61,44,29.84,29.54,8,3,14,0.00
2013-3-19,29.7,16.2,6.6,1.3,-5.0,-12.8,55,38,23,30.19,29.79,8,3,15,0.00
2013-3-20,26.1,15.0,4.5,-3.5,-7.9,-12.6,46,34,24,30.22,30.07,11,3,19,0.00
2013-3-21,34.9,20.1,3.9,4.3,-1.9,-8.8,56,38,24,30.12,29.98,5,1,8,0.00
2013-3-22,44.6,27.4,9.1,12.7,5.5,-4.1,63,41,22,30.08,29.95,4,1,5,0.00
2013-3-23,46.8,31.6,17.1,18.0,11.1,5.9,66,44,23,30.11,30.01,4,1,6,0.00
2013-3-24,34.3,30.4,26.8,21.4,17.5,12.0,72,59,44,30.07,29.92,10,3,13,0.00
2013-3-25,43.3,32.9,22.5,17.0,13.8,9.9,60,46,30,30.17,29.99,8,2,14,0.00
2013-3-26,46.9,33.7,25.3,21.2,16.0,13.0,62,49,28,30.27,30.16,4,1,7,0.00
2013-3-27,52.2,36.0,19.8,26.8,14.9,9.9,72,46,22,30.31,30.21,4,1,7,0.00
2013-3-28,51.8,36.3,20.5,29.9,18.3,12.5,77,51,25,30.32,30.20,6,1,8,0.00
2013-3-29,56.5,40.3,27.7,33.5,27.1,-22.0,72,60,38,30.25,30.01,5,1,10,49.94
2013-3-30,59.4,45.7,35.8,42.3,35.4,27.8,88,69,45,30.01,29.75,6,1,10,0.24
2013-3-31,43.0,35.3,24.1,30.4,19.7,7.0,83,56,24,30.06,29.74,10,3,15,0.00